Погода в Камышове

Россия / Астраханская область     45°56′56″N   47°27′09″E
темп.,
°C
ветер,
м/с
пор.,
м/с
влажн.,
%
обл.,
%
осадки,
мм/ч
давл.,
гПа
погр.,
м
8 мая, сб
сб801:00+14ю68585 0.0 1018196
04:00+13юз47650 0.0 1018147
07:00+15юз46632 0.0 1018175
10:00+20ююз44450 0.0 1018692
13:00+23ююв54370 0.0 10171498
16:00+22ююв76375 0.0 1016899
19:00+19ююв784593 0.0 1016480
22:00+17ююв5855100 0.0 1016331
9 мая, вс
вс901:00+16ююв4763100 0.0 1015252
04:00+16юв596839 0.0 1014289
07:00+17юв712635 0.0 1013628
10:00+21юв10134572 0.0 1012939
13:00+22ююв111349100 0.0 10111020
16:00+20ююв10135899 0.0 1010841
19:00+19ююв6864100 0.0 1010649
22:00+18ююв3472100 0.0 1010402
10 мая, пн
пн1001:00+13зсз111381100 1.1 1010537
04:00+10зсз121687100 4.7 1013663
07:00+10зсз111578100 1.6 1015874
10:00+11зсз111368100 1.7 10161271
13:00+12зсз91162100 0.6 10171313
16:00+13зсз81154100 1.4 10181616
19:00+14зсз68469 0.0 10181443
22:00+11зсз45594 0.0 1020242
11 мая, вт
вт1101:00+9зюз22692 0.0 102090
04:00+9з23730 0.0 1020133
07:00+10сз11662 0.0 1021185
10:00+13вюв2250100 0.0 1022754
13:00+16св234098 0.0 10211254
16:00+18вюв233780 0.0 10201731
19:00+17ююв544949 0.0 10201035
22:00+15ююз346283 0.0 1020203
12 мая, ср
ср1201:00+14з33665 0.0 1019114
04:00+13зсз33715 0.0 1019103
07:00+14ссв23560 0.0 1019178
10:00+18св33390 0.0 1019749
13:00+20св23363 0.0 10171096
16:00+22юв554129 0.0 10161471
19:00+20ююв55560 0.0 1016677
22:00+17ююв45720 0.0 1016226